Tracking 28125 objects as of 4-Oct-2023
HD Live streaming from Space Station
objects crossing your sky now

STARLINK-4169

Track STARLINK-4169 now!
10-day predictions
STARLINK-4169 is classified as:


NORAD ID: 53280
Int'l Code: 2022-086AQ
Perigee: 546.0 km
Apogee: 547.8 km
Inclination: 53.2 °
Period: 95.4 minutes
Semi major axis: 6917 km
RCS: Unknown
Launch date: July 24, 2022
Source: United States (US)
Launch site: AIR FORCE EASTERN TEST RANGE (AFETR)
Your satellite tracking list
Your tracking list is empty




NASA's NSSDC Master Catalog

Two Line Element Set (TLE):
1 53280U 22086AQ  23277.39024676  .00000192  00000-0  30133-4 0  9990
2 53280  53.2153 162.0368 0001302  94.2467 265.8674 15.08842200 67712
Source of the keplerian elements: AFSPC